TimeEST,TemperatureF,Dew PointF,Humidity,Sea Level PressureIn,VisibilityMPH,Wind Direction,Wind SpeedMPH,Gust SpeedMPH,PrecipitationIn,Events,Conditions,WindDirDegrees,DateUTC
12:58 AM,17.8,11.1,75,30.47,10.0,East,5.8,-,N/A,,Clear,90,2013-12-25 05:58:00
1:58 AM,17.8,11.1,75,30.45,10.0,East,5.8,-,N/A,,Clear,90,2013-12-25 06:58:00
2:58 AM,17.8,11.7,77,30.47,10.0,East,3.5,-,N/A,,Clear,80,2013-12-25 07:58:00
3:58 AM,17.4,12.2,80,30.45,10.0,East,4.6,-,N/A,,Clear,80,2013-12-25 08:58:00
4:58 AM,17.1,11.7,79,30.45,10.0,East,3.5,-,N/A,,Clear,80,2013-12-25 09:58:00
5:58 AM,17.1,11.8,80,30.45,10.0,ENE,3.5,-,N/A,,Clear,70,2013-12-25 10:58:00
6:58 AM,16.5,11.7,81,30.45,10.0,East,3.5,-,N/A,,Clear,90,2013-12-25 11:58:00
7:58 AM,16.5,11.7,81,30.45,10.0,ESE,5.8,-,N/A,,Clear,120,2013-12-25 12:58:00
8:58 AM,19.2,13.3,78,30.45,10.0,SE,5.8,-,N/A,,Partly Cloudy,130,2013-12-25 13:58:00
9:58 AM,24.3,16.2,71,30.45,10.0,SSE,5.8,-,N/A,,Overcast,160,2013-12-25 14:58:00
10:58 AM,27.5,16.9,64,30.43,10.0,South,6.9,-,N/A,,Overcast,180,2013-12-25 15:58:00
11:58 AM,32.4,18.0,55,30.39,10.0,South,10.4,-,N/A,,Partly Cloudy,170,2013-12-25 16:58:00
12:58 PM,36.7,14.9,41,30.35,10.0,SSW,12.7,-,N/A,,Clear,200,2013-12-25 17:58:00
1:58 PM,38.8,16.5,40,30.31,10.0,SSW,10.4,-,N/A,,Scattered Clouds,200,2013-12-25 18:58:00
2:58 PM,39.9,17.1,40,30.30,10.0,South,11.5,-,N/A,,Mostly Cloudy,180,2013-12-25 19:58:00
3:58 PM,40.1,17.6,40,30.28,10.0,SSW,6.9,-,N/A,,Overcast,200,2013-12-25 20:58:00
4:58 PM,39.2,18.3,43,30.29,10.0,South,6.9,-,N/A,,Overcast,190,2013-12-25 21:58:00
5:58 PM,38.1,19.4,47,30.28,10.0,South,5.8,-,N/A,,Overcast,190,2013-12-25 22:58:00
6:58 PM,37.8,19.2,47,30.28,10.0,South,8.1,-,N/A,,Overcast,180,2013-12-25 23:58:00
7:58 PM,37.2,19.4,49,30.28,10.0,SSW,5.8,-,N/A,,Overcast,210,2013-12-26 00:58:00
8:58 PM,36.9,19.6,50,30.27,10.0,SW,8.1,-,N/A,,Overcast,220,2013-12-26 01:58:00
9:58 PM,37.6,19.8,49,30.26,10.0,SSW,8.1,-,N/A,,Overcast,210,2013-12-26 02:58:00
10:58 PM,37.4,21.0,52,30.27,10.0,SW,8.1,-,N/A,,Overcast,230,2013-12-26 03:58:00
11:58 PM,35.8,22.5,58,30.26,10.0,SW,8.1,-,N/A,,Mostly Cloudy,230,2013-12-26 04:58:00